Terminal Aerodrome Forecast
Issued by NWS Wilmington, NC

Home | Current Version | Previous Version | Text Only | Print | Product List | Glossary On
Versions: 1 2 3 4 5 6 7 8 9 10 11 12 13 14 15
000
FTUS42 KILM 251700
TAFILM
TAF
KILM 251721Z 2518/2618 17008KT P6SM SKC
     FM252300 19003KT P6SM FEW120 FEW250
     FM261000 22005KT P6SM SCT035 BKN100
     FM261200 27009KT P6SM BKN030=

USA.gov is the U.S. government's official web portal to all federal, state and local government web resources and services.